Content
SEND FEEDBACK

Daily
Averages
Monthly
Summary
United States of America

PUT IN BAY, OHIO


Home > North America > United States > Ohio
Elevation: 561 feet     Latitude: 41 39N     Longitude: 082 48W

WEATHER
 
SELECT A DAY
Number of Records: 123,078;   Date Range: 12/10/00 - 9/18/14
 
SHARE

PRINT THIS DATA

[ ← Previous Day ]
WEATHER ALMANAC - FEBRUARY 19, 2013
[ Next Day → ]
[ °C ]   °F
Weather ElementAverageHighLow
Temperature29.8 °F42 °F (1:00 am)19.6 °F (11:00 pm)
Dewpoint23.2 °F36.9 °F (5:00 am)10.6 °F (10:00 pm)
Humidity75.8 %91 % (4:00 am)57 % (1:00 am)
Barometer29.69 in29.96 in (11:00 pm)29.47 in (5:00 am)
Wind Speed21 mph25.3 mph (12:00 pm)
Wind Gust35.7 mph (12:00 pm)
Weather ElementAverage
Wind DirectionWSW (240.4 °)

Weather ElementTotal
Precipitation0.04 in
Heating Degree Days34.2 (Base 65)
Averaged from 25 records on February 19, 2013
WEATHER CONDITIONS BREAKOUT
WIND DIRECTION BREAKOUT
WEATHER BY HOUR - FEBRUARY 19, 2013
[ °C ]   °F
Local TimeTemperatureDewpointHumidityBarometerVisibilityWind DirectionWind SpeedGust SpeedPrecipitationEventsConditions
1:00 AM42.0 °F32.0 °F57 %29.63 inSouth (190°)15.0 mph
1:00 AM41.7 °F31.8 °F68 %29.63 inSouth (190°)15.0 mph
2:00 AM40.3 °F35.2 °F82 %29.59 inSouth (190°)19.6 mph27.6 mph0.01 in
3:00 AM39.4 °F35.8 °F87 %29.55 inSouth (180°)20.7 mph27.6 mph
4:00 AM38.5 °F36.1 °F91 %29.50 inSouth (190°)20.7 mph28.8 mph0.03 in
5:00 AM39.6 °F36.9 °F90 %29.47 inSouth (190°)20.7 mph29.9 mph
6:00 AM38.3 °F35.8 °F91 %29.50 inWSW (240°)20.7 mph28.8 mph
7:00 AM36.0 °F32.0 °F81 %29.55 inWSW (250°)18.4 mph
7:00 AM35.6 °F31.6 °F85 %29.55 inWSW (250°)18.4 mph25.3 mph
8:00 AM33.6 °F30.9 °F90 %29.57 inWSW (250°)23.0 mph32.2 mph
9:00 AM30.4 °F27.9 °F90 %29.62 inWSW (240°)24.2 mph33.4 mph
10:00 AM28.6 °F24.1 °F83 %29.65 inWest (260°)24.2 mph32.2 mph
11:00 AM28.0 °F21.6 °F77 %29.66 inWSW (250°)24.2 mph33.4 mph
12:00 PM26.4 °F20.1 °F77 %29.68 inWSW (250°)25.3 mph35.7 mph
1:00 PM25.0 °F19.0 °F69 %29.69 inWSW (250°)24.2 mph
1:00 PM25.3 °F19.0 °F77 %29.69 inWSW (250°)24.2 mph33.4 mph
2:00 PM25.3 °F15.4 °F66 %29.71 inWest (260°)25.3 mph35.7 mph
3:00 PM24.1 °F12.6 °F62 %29.73 inWest (270°)21.9 mph31.1 mph
4:00 PM23.2 °F12.7 °F64 %29.78 inWest (260°)20.7 mph32.2 mph
5:00 PM22.5 °F11.5 °F63 %29.82 inWest (270°)20.7 mph28.8 mph
6:00 PM21.9 °F11.3 °F64 %29.85 inWest (260°)19.6 mph27.6 mph
8:00 PM20.3 °F13.8 °F76 %29.92 inWest (260°)19.6 mph27.6 mph
9:00 PM20.1 °F11.5 °F69 %29.93 inWest (270°)20.7 mph29.9 mph
10:00 PM19.9 °F10.6 °F67 %29.94 inWest (270°)19.6 mph28.8 mph
11:00 PM19.6 °F11.1 °F70 %29.96 inWest (270°)19.6 mph28.8 mph
Hourly data recorded from CXHA, located miles away from Put In Bay, Ohio







STORIES FROM OUR PARTNERS